Location: Mount Graham
(32.7016°N, 109.8912°W)
Time: 22:06:33
(UTC-07:00)

Daily predictions for brighter satellites

Satellite Brightness Start Highest point End
(mag) Time Altitude Azimuth Time Altitude Azimuth Time Altitude Azimuth
Cosmos 1386 Rocket 4.5 18:26:46 10° S 18:32:49 65° E 18:38:49 10° NNE
GEOS 3 Rocket 3.8 18:32:49 10° NE 18:37:58 56° ESE 18:43:09 10° SSW
SL-8 R/B 3.7 18:36:55 10° NW 18:41:46 85° NE 18:46:35 10° SE
Cosmos 2360 Rocket 3.5 18:38:12 10° NNE 18:42:05 19° ENE 18:45:57 10° ESE
Cosmos 1980 Rocket 3.3 18:37:36 10° NNW 18:43:06 51° WSW 18:48:35 10° S
Cosmos 1633 3.6 18:41:02 10° SSE 18:44:06 25° E 18:47:11 10° NE
Cosmos 1975 Rocket 3.5 18:41:24 10° NNW 18:45:41 65° W 18:49:56 10° S
Helios 1B rocket 4.4 18:44:49 10° E 18:45:44 11° E 18:46:39 10° ESE
GOES 2 Rocket 4.4 18:42:10 10° W 18:47:03 37° SSW 18:51:07 10° SE
OAO 3 Copernicus 4.5 18:42:22 10° W 18:47:26 67° N 18:52:08 12° E
FREGAT/IRIS 3.4 18:45:10 10° SE 18:47:55 31° ENE 18:50:42 10° N
ALOS 2.9 18:52:20 10° SE 18:56:28 32° ENE 19:00:38 10° N
Cosmos 1833 4.2 18:54:56 10° S 19:00:35 66° ESE 19:06:12 10° NNE
ATLAS 2A CENTAUR R/B 2.4 19:00:40 10° WSW 19:02:49 29° S 19:07:25 12° ESE
ASTRO E2 3.5 18:59:07 10° W 19:02:59 46° SSW 19:06:24 13° ESE
Cosmos 1536 Rocket 3.6 19:00:13 10° N 19:04:36 55° E 19:08:59 10° SSE
Cosmos 1818 4.1 19:01:17 10° SW 19:06:38 60° WNW 19:12:02 10° NNE
SJ-6B 2.8 19:03:10 10° SSE 19:07:11 66° ENE 19:11:09 10° N
BREEZE-M DEB (TANK) 4.3 19:09:18 10° N 19:11:23 16° NE 19:12:05 15° NE
Cosmos 1023 Rocket 4.4 19:09:42 10° S 19:14:43 67° ESE 19:19:48 10° NNE
Resurs 01 Rocket 2.1 19:10:55 10° SE 19:14:59 38° ENE 19:19:04 10° N
FengYun 1-2 T 4.3 19:10:29 10° SSE 19:15:46 53° ENE 19:21:06 10° N
SL-16 R/B 2.3 19:10:45 10° NNW 19:16:26 81° WSW 19:22:05 10° SSE
TSX-5 4.2 19:14:06 10° SW 19:17:16 47° WNW 19:20:20 10° N
Cosmos 1340 2.7 19:14:35 10° N 19:18:18 53° E 19:21:59 10° SSE
DNEPR-1 R/B 3.4 19:17:58 10° NNW 19:22:10 88° ENE 19:26:34 10° SSE
Cosmos 1238 Rocket 2.1 19:21:05 10° N 19:23:58 49° E 19:24:54 34° SE
Gbstr 26 Del rocket 2.7 19:20:27 10° SW 19:24:20 73° NW 19:26:34 23° NE
Hubble Space Telescope 2.9 19:22:40 10° S 19:24:37 13° SSE 19:25:09 13° SSE
Tiangong 2 1.9 19:23:33 10° NW 19:26:23 33° NNE 19:26:33 33° NNE
DELTA 2 R/B (1) 4.0 19:21:16 10° WNW 19:26:42 49° NNE 19:29:25 27° ENE
Meteor 1-19 Rocket 4.3 19:21:40 10° N 19:27:16 57° E 19:32:54 10° SSE
Orbus 7S 4.2 19:25:17 10° WSW 19:27:38 30° S 19:28:52 23° SE
BREEZE-M DEB (TANK) 2.9 19:24:07 10° NW 19:30:10 59° NE 19:30:58 42° E
Cosmos 1300 Rocket 3.6 19:26:45 10° S 19:31:08 81° W 19:35:34 10° N
Cosmos 1536 2.8 19:28:18 10° S 19:32:13 57° E 19:36:08 10° NNE
Cosmos 2322 Rocket 3.0 19:28:46 10° NNW 19:34:13 53° WSW 19:39:39 10° S
Cosmos 2181 Rocket 3.9 19:29:10 10° N 19:35:27 81° E 19:41:48 10° S
CZ-2D R/B 4.0 19:38:26 34° NE 19:38:26 34° NE 19:41:01 10° N
Resurs 1-3 3.6 19:33:11 10° SSE 19:37:28 58° ENE 19:41:47 10° N
Meteor 1-13 Rocket 4.1 19:36:15 10° N 19:41:50 90° W 19:47:29 10° S
Cosmos 1140 Rocket 4.0 19:39:21 10° SSW 19:44:23 60° WNW 19:49:29 10° N
FENGYUN 3A 3.7 19:39:17 10° S 19:44:40 80° WSW 19:50:07 10° NNW
ATLAS CENTAUR R/B 2.4 19:40:48 10° SSW 19:45:58 40° SSE 19:45:58 40° SSE
H-2A R/B 2.5 19:45:20 42° SSE 19:46:31 82° ENE 19:50:14 10° N
Cosmos 1461 3.5 19:42:58 10° NW 19:46:55 53° WSW 19:50:11 15° S
Cosmos 2322 3.7 19:41:33 10° NNW 19:47:12 60° ENE 19:49:34 34° SE
Cosmos 2074 Rocket 3.9 19:42:54 10° S 19:49:03 68° E 19:55:17 10° NNE
Cosmos 2184 Rocket 3.9 19:43:35 10° S 19:49:51 67° E 19:56:05 10° NNE
SL-19 R/B 4.3 19:47:16 10° SSE 19:52:50 83° WSW 19:58:41 10° NNW
Spot 2 Rocket 3.5 19:48:29 10° S 19:53:31 82° WSW 19:58:36 10° NNW
Meteor 1-23 Rocket 4.3 19:47:52 10° N 19:53:34 55° E 19:55:23 39° SE
Helios 1A 4.1 19:58:08 31° N 19:58:08 31° N 20:00:29 10° N
Cosmos 614 Rocket 4.3 19:51:34 10° SSW 19:56:36 62° WNW 20:01:37 10° N
COSMOS 2428 3.5 19:55:01 10° N 19:59:03 34° NE 19:59:03 34° NE
Cosmos 2237 4.4 19:55:18 10° N 20:00:38 50° ENE 20:00:38 50° ENE
Meteor 2-4 Rocket 3.5 19:55:32 10° N 20:01:05 81° E 20:04:57 20° SSE
Okean 1 Rocket 4.1 19:57:54 10° SSW 20:02:12 46° W 20:06:31 10° N
Cosmos 1850 Rocket 4.3 19:58:13 10° SSW 20:03:27 66° WNW 20:08:45 10° N
GPS 2-04 Rocket1 3.1 20:01:32 10° WSW 20:05:18 64° SW 20:05:18 64° SW
Abrixas rocket 4.1 20:04:07 10° SW 20:05:50 28° SW 20:05:50 28° SW
Cosmos 2219 3.6 20:13:11 10° SSW 20:18:52 63° WNW 20:23:09 18° N
USA 229 DEB 4.5 20:14:11 10° NNW 20:19:44 37° NNE 20:19:44 37° NNE
USA 229 4.5 20:14:18 10° NNW 20:19:49 37° NNE 20:19:49 37° NNE
Helios 1B rocket 3.4 20:20:32 41° NW 20:21:12 45° WNW 20:25:09 10° SSW
Okean 1-7 Rocket 4.4 20:21:24 10° NNW 20:25:47 49° W 20:25:47 49° W
Cosmos 2360 Rocket 2.9 20:20:54 10° NNW 20:26:21 52° WSW 20:28:57 29° SSW
Cosmos 2219 Rocket 4.1 20:24:24 10° N 20:25:54 18° N 20:25:54 18° N
Cosmos 2333 Rocket 4.4 20:50:05 10° N 20:51:05 15° N 20:51:05 15° N
